LB9CG Weather Reports


Display with metric or nautical units.
time (UTC)temp
F
wind
direction
speed
MPH
gust
MPH
rain 1hr
in
rain 24hr
in
rain mn
in
humidity
%
barometer
mb
20260504231015 32 0.0 0.0 0.00 0.00 0.00 93 1000.3
20260504230015 32 0.0 0.0 0.00 0.00 0.00 92 1000.2
20260504225015 33 0.0 0.0 0.00 0.00 0.00 91 1000.3
20260504224055 33 0.0 0.0 0.00 0.00 0.00 91 1000.3
20260504223017 33 0.0 1.0 0.00 0.00 0.00 91 1000.3
20260504222037 34 0.0 1.0 0.00 0.00 0.00 90 1000.3
20260504221017 35 0.0 1.0 0.00 0.00 0.00 90 1000.3
20260504220017 35 0.0 1.0 0.00 0.00 0.00 90 1000.2
20260504215016 35 0.0 1.0 0.00 0.00 0.00 90 1000.2
20260504214015 34 293 1.0 4.0 0.00 0.00 0.00 92 1000.2
20260504213016 34 0.0 1.0 0.00 0.00 0.00 90 1000.0
20260504212036 34 0.0 1.0 0.00 0.00 0.00 89 1000.1
20260504211015 34 0.0 1.0 0.00 0.00 0.00 90 1000.0
20260504210016 34 0.0 2.0 0.00 0.00 0.00 90 999.9
20260504205016 35 338 1.0 3.0 0.00 0.00 0.00 91 999.8
20260504204016 35 0 1.0 2.0 0.00 0.00 0.00 93 999.6
20260504203015 35 0.0 1.0 0.00 0.00 0.00 93 999.6
20260504202015 35 0.0 2.0 0.00 0.00 0.00 94 999.5
20260504201015 36 0.0 0.0 0.00 0.00 0.00 95 999.5
20260504200015 36 0.0 0.0 0.00 0.00 0.00 94 999.5
20260504195015 35 0.0 0.0 0.00 0.00 0.00 95 999.4
20260504194015 35 0.0 0.0 0.00 0.00 0.00 94 999.3
20260504193015 36 0.0 1.0 0.00 0.00 0.00 94 999.2
20260504192015 36 0.0 1.0 0.00 0.00 0.00 93 999.1
20260504191015 36 0.0 1.0 0.00 0.00 0.00 93 999.0
20260504190015 36 0.0 1.0 0.00 0.00 0.00 93 998.9
20260504185035 36 0.0 0.0 0.00 0.00 0.00 92 998.8
20260504184015 37 0.0 2.0 0.00 0.00 0.00 92 998.8
20260504183017 37 0 1.0 3.0 0.00 0.00 0.00 92 998.7
20260504182037 37 293 1.0 3.0 0.00 0.00 0.00 92 998.6
20260504181037 37 293 3.0 7.0 0.00 0.00 0.00 93 998.5
20260504180017 37 293 2.0 5.0 0.00 0.00 0.00 93 998.4
20260504175017 37 338 2.0 6.0 0.00 0.00 0.00 93 998.3
20260504174017 37 293 2.0 6.0 0.00 0.00 0.00 93 998.2
20260504173017 37 270 4.0 11.0 0.00 0.00 0.00 94 998.0
20260504172057 36 0 2.0 5.0 0.00 0.00 0.00 94 997.9
20260504171017 36 0 2.0 4.0 0.00 0.00 0.00 94 997.7
20260504151017 34 225 2.0 6.0 0.00 0.00 0.00 93 996.6
20260504141037 39 225 2.0 5.0 0.00 0.00 0.00 90 997.2
20260504081016 41 90 1.0 8.0 0.00 0.00 0.00 90 997.0
20260504050016 39 158 8.0 15.0 0.00 0.00 0.00 90 994.7
20260504045015 38 203 8.0 15.0 0.00 0.00 0.00 91 994.5
20260504044015 38 158 6.0 14.0 0.00 0.00 0.00 90 994.5
20260504043015 38 180 4.0 18.0 0.00 0.00 0.00 89 994.6
20260504042016 38 135 7.0 15.0 0.00 0.00 0.00 88 994.8
20260504041015 38 135 7.0 15.0 0.00 0.00 0.00 88 994.7
20260504040035 38 135 7.0 13.0 0.00 0.00 0.00 89 994.8
20260504035016 38 135 7.0 15.0 0.00 0.00 0.00 88 995.1
20260504034016 38 135 4.0 9.0 0.00 0.00 0.00 88 995.3
20260504033036 38 135 5.0 11.0 0.00 0.00 0.00 87 995.6
20260504032015 38 158 4.0 17.0 0.00 0.00 0.00 84 995.8
20260504031015 38 135 3.0 7.0 0.00 0.00 0.00 81 996.1
20260504030035 39 158 4.0 12.0 0.00 0.00 0.00 77 996.3
20260504025015 40 135 4.0 9.0 0.00 0.00 0.00 74 996.3
20260504024035 40 158 5.0 14.0 0.00 0.00 0.00 74 996.4
20260504023015 40 135 5.0 12.0 0.00 0.00 0.00 74 996.5
20260504022015 40 135 4.0 8.0 0.00 0.00 0.00 75 996.6
20260504021035 40 135 8.0 12.0 0.00 0.00 0.00 75 996.8
20260504020035 40 135 7.0 12.0 0.00 0.00 0.00 75 996.9
20260504015017 40 135 6.0 9.0 0.00 0.00 0.00 76 997.1
20260504014017 40 135 6.0 10.0 0.00 0.00 0.00 76 997.3
20260504013017 39 135 5.0 11.0 0.00 0.00 0.00 76 997.5
20260504012017 39 135 5.0 10.0 0.00 0.00 0.00 77 997.7
20260504011017 39 135 5.0 10.0 0.00 0.00 0.00 77 997.8
20260504010017 39 135 5.0 10.0 0.00 0.00 0.00 77 998.1
20260504005017 39 135 4.0 10.0 0.00 0.00 0.00 77 998.3
20260504004017 39 158 3.0 9.0 0.00 0.00 0.00 77 998.5
20260504003017 39 135 3.0 10.0 0.00 0.00 0.00 78 998.6
20260504002037 39 158 2.0 6.0 0.00 0.00 0.00 77 998.8
20260504001015 39 158 2.0 7.0 0.00 0.00 0.00 77 998.9
20260504000017 39 158 3.0 8.0 0.00 0.00 0.00 77 999.0
20260503235017 40 158 2.0 6.0 0.00 0.00 0.00 77 999.2
20260503234017 40 135 2.0 9.0 0.00 0.00 0.00 77 999.3
20260503233017 39 203 2.0 7.0 0.00 0.00 0.00 77 999.5
20260503232017 39 225 2.0 6.0 0.00 0.00 0.00 76 999.6